| time (UTC) | temp F | wind direction | speed MPH | gust MPH | rain 1hr in | rain 24hr in | rain mn in | humidity % | barometer mb |
| 20260506112951 | 64 | 293 | 8.0 | 16.0 | 0.00 | 0.00 | 0.00 | 80 | 1009.3 |
| 20260506111451 | 63 | 269 | 9.0 | 18.0 | 0.00 | 0.00 | 0.00 | 80 | 1009.2 |
| 20260506104451 | 63 | 309 | 9.0 | 18.0 | 0.00 | 0.00 | 0.00 | 80 | 1009.1 |
| 20260506102951 | 63 | 267 | 9.0 | 16.0 | 0.00 | 0.00 | 0.00 | 80 | 1009.0 |
| 20260506101451 | 63 | 286 | 7.0 | 17.0 | 0.00 | 0.00 | 0.00 | 80 | 1009.0 |
| 20260506095954 | 63 | 329 | 8.0 | 16.0 | 0.00 | 0.00 | 0.00 | 80 | 1009.0 |
| 20260506094451 | 63 | 294 | 9.0 | 16.0 | 0.00 | 0.00 | 0.00 | 79 | 1008.9 |
| 20260506091451 | 64 | 276 | 8.0 | 16.0 | 0.00 | 0.00 | 0.00 | 78 | 1009.2 |
| 20260506084452 | 65 | 271 | 9.0 | 17.0 | 0.00 | 0.00 | 0.00 | 77 | 1009.2 |
| 20260506082951 | 65 | 290 | 9.0 | 17.0 | 0.00 | 0.00 | 0.00 | 76 | 1009.1 |
| 20260506081451 | 65 | 289 | 10.0 | 22.0 | 0.00 | 0.00 | 0.00 | 76 | 1008.9 |
| 20260506072952 | 66 | 291 | 7.0 | 15.0 | 0.00 | 0.00 | 0.00 | 75 | 1009.3 |
| 20260506071451 | 66 | 289 | 6.0 | 15.0 | 0.00 | 0.00 | 0.00 | 75 | 1009.4 |
| 20260506061451 | 66 | 281 | 6.0 | 16.0 | 0.00 | 0.00 | 0.00 | 71 | 1009.9 |
| 20260506044452 | 68 | 220 | 5.0 | 13.0 | 0.00 | 0.00 | 0.00 | 65 | 1010.2 |
| 20260506034452 | 68 | 294 | 5.0 | 11.0 | 0.00 | 0.00 | 0.00 | 63 | 1010.3 |
| 20260506032952 | 68 | 314 | 5.0 | 11.0 | 0.00 | 0.00 | 0.00 | 63 | 1010.2 |
| 20260506031452 | 68 | 288 | 5.0 | 11.0 | 0.00 | 0.00 | 0.00 | 62 | 1010.2 |
| 20260506025954 | 68 | 266 | 5.0 | 16.0 | 0.00 | 0.00 | 0.00 | 62 | 1010.3 |
| 20260506024451 | 69 | 245 | 5.0 | 10.0 | 0.00 | 0.00 | 0.00 | 62 | 1010.4 |
| 20260506022952 | 69 | 284 | 6.0 | 11.0 | 0.00 | 0.00 | 0.00 | 61 | 1010.4 |
| 20260506021452 | 69 | 267 | 5.0 | 10.0 | 0.00 | 0.00 | 0.00 | 60 | 1010.4 |
| 20260506015955 | 70 | 288 | 7.0 | 13.0 | 0.00 | 0.00 | 0.00 | 59 | 1010.3 |
| 20260506014452 | 70 | 267 | 6.0 | 14.0 | 0.00 | 0.00 | 0.00 | 58 | 1010.1 |
| 20260506012952 | 71 | 266 | 6.0 | 12.0 | 0.00 | 0.00 | 0.00 | 57 | 1010.0 |
| 20260506011452 | 71 | 287 | 8.0 | 15.0 | 0.00 | 0.00 | 0.00 | 56 | 1009.8 |
| 20260506005955 | 72 | 288 | 6.0 | 14.0 | 0.00 | 0.00 | 0.00 | 55 | 1009.7 |
| 20260506004452 | 72 | 298 | 6.0 | 14.0 | 0.00 | 0.00 | 0.00 | 54 | 1009.5 |
| 20260506002952 | 73 | 249 | 7.0 | 15.0 | 0.00 | 0.00 | 0.00 | 52 | 1009.4 |
| 20260506001452 | 73 | 267 | 6.0 | 13.0 | 0.00 | 0.00 | 0.00 | 50 | 1009.3 |
| 20260505235955 | 73 | 327 | 4.0 | 10.0 | 0.00 | 0.00 | 0.00 | 49 | 1009.1 |
| 20260505232952 | 75 | 323 | 6.0 | 12.0 | 0.00 | 0.00 | 0.00 | 47 | 1008.9 |
| 20260505231451 | 75 | 299 | 7.0 | 13.0 | 0.00 | 0.00 | 0.00 | 47 | 1009.0 |
| 20260505225955 | 76 | 300 | 7.0 | 15.0 | 0.00 | 0.00 | 0.00 | 46 | 1008.9 |
| 20260505224453 | 76 | 276 | 9.0 | 23.0 | 0.00 | 0.00 | 0.00 | 45 | 1008.9 |
| 20260505222952 | 77 | 294 | 9.0 | 19.0 | 0.00 | 0.00 | 0.00 | 45 | 1008.9 |
| 20260505215955 | 78 | 295 | 7.0 | 20.0 | 0.00 | 0.00 | 0.00 | 45 | 1009.0 |
| 20260505214453 | 77 | 314 | 9.0 | 19.0 | 0.00 | 0.00 | 0.00 | 45 | 1009.0 |
| 20260505212952 | 78 | 304 | 8.0 | 17.0 | 0.00 | 0.00 | 0.00 | 45 | 1008.7 |
| 20260505211452 | 78 | 311 | 11.0 | 22.0 | 0.00 | 0.00 | 0.00 | 44 | 1008.8 |
| 20260505205956 | 78 | 302 | 9.0 | 23.0 | 0.00 | 0.00 | 0.00 | 45 | 1008.8 |
| 20260505202952 | 78 | 300 | 10.0 | 18.0 | 0.00 | 0.00 | 0.00 | 45 | 1008.9 |
| 20260505201452 | 78 | 288 | 11.0 | 22.0 | 0.00 | 0.00 | 0.00 | 46 | 1009.0 |
| 20260505195955 | 78 | 317 | 10.0 | 25.0 | 0.00 | 0.00 | 0.00 | 45 | 1009.0 |
| 20260505194452 | 78 | 308 | 10.0 | 19.0 | 0.00 | 0.00 | 0.00 | 45 | 1009.2 |
| 20260505192952 | 78 | 301 | 8.0 | 27.0 | 0.00 | 0.00 | 0.00 | 45 | 1009.2 |
| 20260505191451 | 78 | 290 | 10.0 | 22.0 | 0.00 | 0.00 | 0.00 | 46 | 1009.4 |
| 20260505185955 | 78 | 276 | 9.0 | 20.0 | 0.00 | 0.00 | 0.00 | 47 | 1009.6 |
| 20260505184452 | 77 | 318 | 9.0 | 25.0 | 0.00 | 0.00 | 0.00 | 47 | 1009.8 |
| 20260505182952 | 77 | 305 | 9.0 | 19.0 | 0.00 | 0.00 | 0.00 | 45 | 1010.0 |
| 20260505181453 | 77 | 315 | 10.0 | 21.0 | 0.00 | 0.00 | 0.00 | 46 | 1010.2 |
| 20260505175956 | 77 | 282 | 7.0 | 17.0 | 0.00 | 0.00 | 0.00 | 47 | 1010.4 |
| 20260505174451 | 76 | 293 | 8.0 | 16.0 | 0.00 | 0.00 | 0.00 | 52 | 1010.4 |
| 20260505172952 | 76 | 302 | 8.0 | 18.0 | 0.00 | 0.00 | 0.00 | 52 | 1010.5 |
| 20260505171452 | 75 | 274 | 8.0 | 14.0 | 0.00 | 0.00 | 0.00 | 51 | 1010.7 |
| 20260505162952 | 74 | 274 | 7.0 | 12.0 | 0.00 | 0.00 | 0.00 | 55 | 1011.2 |
| 20260505161452 | 73 | 293 | 6.0 | 11.0 | 0.00 | 0.00 | 0.00 | 55 | 1011.2 |
| 20260505151451 | 73 | 248 | 7.0 | 12.0 | 0.00 | 0.00 | 0.00 | 57 | 1011.4 |
| 20260505124451 | 64 | 307 | 5.0 | 11.0 | 0.00 | 0.00 | 0.00 | 67 | 1012.0 |
| 20260505122952 | 64 | 314 | 6.0 | 10.0 | 0.00 | 0.00 | 0.00 | 66 | 1011.9 |
| 20260505121451 | 63 | 328 | 7.0 | 13.0 | 0.00 | 0.00 | 0.00 | 67 | 1011.7 |
| 20260505115954 | 62 | 307 | 7.0 | 13.0 | 0.00 | 0.00 | 0.00 | 68 | 1011.6 |
| 20260505114452 | 61 | 315 | 6.0 | 12.0 | 0.00 | 0.00 | 0.00 | 70 | 1011.5 |